Location: Amsterdam
(30.7274°N, 84.4357°W)
Time: 19:51:23
(UTC+00:00)

Explorer 11/Cluster Stage 4 - Pass Details

Date: 20 February 2026
Orbit: 463 x 1176 km, 28.8° (Epoch: 5 March)

Event Time Altitude Azimuth Distance (km) Brightness Sun altitude
Rises 19:03:54 0° 263° (W) 2,901 9.8 45.1°
Reaches altitude 10° 19:06:26 10° 261° (W) 1,888 9.1 44.8°
Maximum altitude 19:10:40 67° 179° (S) 562 7.3 44.4°
Drops below altitude 10° 19:14:22 10° 96° (E) 1,647 8.2 44.0°
Sets 19:16:27 0° 94° (E) 2,491 9.0 43.8°
